Location: Maccacari
(45.1333°N, 11.1333°E)
Time: 03:13:44
(UTC+00:00)

S-56A Canister/Altair - Pass Details

Date: 27 June 2021
Orbit: 631 x 2501 km, 38.9° (Epoch: 03 August)

Event Time Altitude Azimuth Distance (km) Brightness Sun altitude
Exits shadow 02:46:34 - 243° (WSW) 2,453 9.5 -6.8°
Reaches altitude 10° 02:47:16 10° 240° (WSW) 2,183 9.2 -6.7°
Maximum altitude 02:51:40 36° 174° (S) 1,007 7.9 -6.1°
Drops below altitude 10° 02:55:44 10° 106° (ESE) 2,014 10.2 -5.6°
Sets 02:58:12 0° 98° (E) 2,976 11.2 -5.3°
